| time (UTC) | temp F | wind direction | speed MPH | gust MPH | rain 1hr in | rain 24hr in | rain mn in | humidity % | barometer mb |
| 20260510174516 | 78 | 30 | 2.0 | 2.0 | 0.00 | 0.00 | 0.00 | 64 | 1011.8 |
| 20260510174014 | 77 | 141 | 0.0 | 1.0 | 0.00 | 0.00 | 0.00 | 65 | 1012.1 |
| 20260510173508 | 77 | 173 | 3.0 | 5.0 | 0.00 | 0.00 | 0.00 | 65 | 1011.9 |
| 20260510173006 | 76 | 131 | 0.0 | 0.0 | 0.00 | 0.00 | 0.00 | 70 | 1012.0 |
| 20260510172501 | 76 | 120 | 0.0 | 0.0 | 0.00 | 0.00 | 0.00 | 68 | 1012.0 |
| 20260510171958 | 75 | 50 | 1.0 | 1.0 | 0.00 | 0.00 | 0.00 | 69 | 1012.1 |
| 20260510171455 | 76 | 105 | 0.0 | 1.0 | 0.00 | 0.00 | 0.00 | 69 | 1012.3 |
| 20260510170951 | 78 | 143 | 1.0 | 2.0 | 0.00 | 0.00 | 0.00 | 63 | 1012.3 |
| 20260510170448 | 76 | 130 | 1.0 | 2.0 | 0.00 | 0.00 | 0.00 | 68 | 1012.2 |
| 20260510165944 | 75 | 79 | 0.0 | 0.0 | 0.00 | 0.00 | 0.00 | 68 | 1012.6 |
| 20260510165440 | 78 | 1 | 4.0 | 6.0 | 0.00 | 0.00 | 0.00 | 66 | 1012.7 |
| 20260510164937 | 77 | 112 | 1.0 | 1.0 | 0.00 | 0.00 | 0.00 | 68 | 1012.6 |
| 20260510164434 | 76 | 189 | 1.0 | 2.0 | 0.00 | 0.00 | 0.00 | 68 | 1012.6 |
| 20260510163934 | 74 | 114 | 1.0 | 1.0 | 0.00 | 0.00 | 0.00 | 74 | 1012.4 |
| 20260510163430 | 74 | 138 | 1.0 | 2.0 | 0.00 | 0.00 | 0.00 | 71 | 1012.5 |
| 20260510162925 | 75 | 150 | 1.0 | 1.0 | 0.00 | 0.00 | 0.00 | 70 | 1012.6 |
| 20260510162423 | 74 | 158 | 2.0 | 2.0 | 0.00 | 0.00 | 0.00 | 76 | 1012.5 |
| 20260510161919 | 74 | 122 | 2.0 | 2.0 | 0.00 | 0.00 | 0.00 | 74 | 1012.8 |
| 20260510161414 | 73 | 122 | 1.0 | 1.0 | 0.00 | 0.00 | 0.00 | 73 | 1012.8 |
| 20260510160912 | 74 | 119 | 1.0 | 1.0 | 0.00 | 0.00 | 0.00 | 75 | 1012.5 |
| 20260510160409 | 74 | 116 | 0.0 | 0.0 | 0.00 | 0.00 | 0.00 | 75 | 1012.6 |
| 20260510155907 | 74 | 124 | 2.0 | 2.0 | 0.00 | 0.00 | 0.00 | 74 | 1012.6 |
| 20260510155405 | 72 | 178 | 2.0 | 2.0 | 0.00 | 0.00 | 0.00 | 78 | 1012.5 |
| 20260510154901 | 73 | 114 | 1.0 | 2.0 | 0.00 | 0.00 | 0.00 | 79 | 1012.5 |
| 20260510154358 | 73 | 106 | 0.0 | 0.0 | 0.00 | 0.00 | 0.00 | 80 | 1012.5 |
| 20260510153851 | 73 | 144 | 3.0 | 3.0 | 0.00 | 0.00 | 0.00 | 80 | 1012.5 |
| 20260510153347 | 72 | 195 | 1.0 | 2.0 | 0.00 | 0.00 | 0.00 | 80 | 1012.5 |
| 20260510152844 | 72 | 64 | 1.0 | 1.0 | 0.00 | 0.00 | 0.00 | 83 | 1012.6 |
| 20260510152342 | 70 | 62 | 1.0 | 1.0 | 0.00 | 0.00 | 0.00 | 86 | 1012.6 |
| 20260510151837 | 69 | 44 | 2.0 | 2.0 | 0.00 | 0.00 | 0.00 | 87 | 1012.6 |
| 20260510151336 | 69 | 60 | 0.0 | 0.0 | 0.00 | 0.00 | 0.00 | 91 | 1012.4 |
| 20260510150831 | 69 | 60 | 1.0 | 1.0 | 0.00 | 0.00 | 0.00 | 91 | 1012.7 |
| 20260510150327 | 68 | 60 | 1.0 | 1.0 | 0.00 | 0.00 | 0.00 | 94 | 1012.7 |
| 20260510145823 | 68 | 72 | 0.0 | 0.0 | 0.00 | 0.00 | 0.00 | 97 | 1012.6 |
| 20260510145320 | 67 | 62 | 0.0 | 1.0 | 0.00 | 0.00 | 0.00 | 98 | 1012.5 |
| 20260510144817 | 67 | 33 | 2.0 | 2.0 | 0.00 | 0.00 | 0.00 | 99 | 1012.6 |
| 20260510144314 | 66 | 52 | 1.0 | 1.0 | 0.00 | 0.00 | 0.00 | 99 | 1012.6 |
| 20260510143813 | 66 | 53 | 0.0 | 0.0 | 0.00 | 0.00 | 0.00 | 99 | 1012.6 |
| 20260510143309 | 66 | 60 | 0.0 | 1.0 | 0.00 | 0.00 | 0.00 | 99 | 1012.5 |
| 20260510142806 | 66 | 60 | 0.0 | 0.0 | 0.00 | 0.00 | 0.00 | 99 | 1012.6 |
| 20260510142306 | 66 | 67 | 0.0 | 1.0 | 0.00 | 0.00 | 0.00 | 99 | 1012.6 |
| 20260510141800 | 66 | 67 | 1.0 | 1.0 | 0.00 | 0.00 | 0.00 | 99 | 1012.6 |
| 20260510141257 | 66 | 68 | 0.0 | 0.0 | 0.00 | 0.00 | 0.00 | 99 | 1012.7 |
| 20260510140755 | 65 | 68 | 0.0 | 0.0 | 0.00 | 0.00 | 0.00 | 99 | 1012.7 |
| 20260510140250 | 65 | 67 | 0.0 | 0.0 | 0.00 | 0.00 | 0.00 | 99 | 1012.5 |
| 20260510135750 | 65 | 67 | 1.0 | 1.0 | 0.00 | 0.00 | 0.00 | 99 | 1012.6 |
| 20260510135245 | 65 | 68 | 0.0 | 0.0 | 0.00 | 0.00 | 0.00 | 99 | 1012.7 |
| 20260510134743 | 65 | 67 | 0.0 | 0.0 | 0.00 | 0.00 | 0.00 | 99 | 1012.4 |
| 20260510134240 | 65 | 67 | 0.0 | 0.0 | 0.00 | 0.00 | 0.00 | 99 | 1012.4 |
| 20260510133736 | 65 | 67 | 1.0 | 1.0 | 0.00 | 0.00 | 0.00 | 99 | 1012.5 |
| 20260510133232 | 65 | 68 | 0.0 | 0.0 | 0.00 | 0.00 | 0.00 | 99 | 1012.3 |
| 20260510132728 | 65 | 68 | 0.0 | 1.0 | 0.00 | 0.00 | 0.00 | 99 | 1012.5 |
| 20260510132226 | 65 | 68 | 0.0 | 0.0 | 0.00 | 0.00 | 0.00 | 99 | 1012.3 |
| 20260510131722 | 65 | 68 | 0.0 | 0.0 | 0.00 | 0.00 | 0.00 | 99 | 1012.2 |
| 20260510131221 | 64 | 67 | 1.0 | 1.0 | 0.00 | 0.00 | 0.00 | 99 | 1012.4 |
| 20260510130717 | 64 | 68 | 0.0 | 0.0 | 0.00 | 0.00 | 0.00 | 99 | 1012.2 |
| 20260510130214 | 64 | 68 | 0.0 | 0.0 | 0.00 | 0.00 | 0.00 | 99 | 1012.2 |
| 20260510125710 | 64 | 68 | 0.0 | 0.0 | 0.00 | 0.00 | 0.00 | 99 | 1012.4 |
| 20260510125206 | 64 | 68 | 0.0 | 0.0 | 0.00 | 0.00 | 0.00 | 99 | 1012.1 |
| 20260510124703 | 64 | 68 | 0.0 | 0.0 | 0.00 | 0.00 | 0.00 | 99 | 1012.1 |
| 20260510124201 | 64 | 68 | 0.0 | 0.0 | 0.00 | 0.00 | 0.00 | 99 | 1012.0 |
| 20260510123655 | 64 | 68 | 0.0 | 0.0 | 0.00 | 0.00 | 0.00 | 99 | 1012.1 |
| 20260510123152 | 64 | 67 | 0.0 | 0.0 | 0.00 | 0.00 | 0.00 | 99 | 1012.1 |
| 20260510122648 | 63 | 67 | 0.0 | 0.0 | 0.00 | 0.00 | 0.00 | 99 | 1012.0 |
| 20260510122144 | 63 | 67 | 0.0 | 1.0 | 0.00 | 0.00 | 0.00 | 99 | 1011.9 |
| 20260510121641 | 63 | 67 | 0.0 | 0.0 | 0.00 | 0.00 | 0.00 | 99 | 1011.8 |
| 20260510121138 | 63 | 67 | 0.0 | 0.0 | 0.00 | 0.00 | 0.00 | 99 | 1011.7 |
| 20260510120636 | 63 | 68 | 0.0 | 0.0 | 0.00 | 0.00 | 0.00 | 99 | 1011.8 |
| 20260510120131 | 63 | 68 | 0.0 | 0.0 | 0.00 | 0.00 | 0.00 | 99 | 1011.2 |
| 20260510115628 | 63 | 68 | 0.0 | 1.0 | 0.00 | 0.00 | 0.00 | 99 | 1011.4 |
| 20260510115126 | 63 | 72 | 0.0 | 0.0 | 0.00 | 0.00 | 0.00 | 99 | 1011.1 |
| 20260510114621 | 63 | 72 | 1.0 | 1.0 | 0.00 | 0.00 | 0.00 | 99 | 1011.1 |
| 20260510114118 | 63 | 72 | 0.0 | 0.0 | 0.00 | 0.00 | 0.00 | 99 | 1011.4 |
| 20260510113613 | 63 | 72 | 0.0 | 0.0 | 0.00 | 0.00 | 0.00 | 99 | 1011.1 |
| 20260510113111 | 63 | 71 | 1.0 | 1.0 | 0.00 | 0.00 | 0.00 | 99 | 1011.1 |
| 20260510112607 | 63 | 90 | 0.0 | 0.0 | 0.00 | 0.00 | 0.00 | 99 | 1010.8 |
| 20260510112103 | 63 | 90 | 0.0 | 0.0 | 0.00 | 0.00 | 0.00 | 99 | 1010.7 |
| 20260510111600 | 63 | 90 | 0.0 | 0.0 | 0.00 | 0.00 | 0.00 | 99 | 1010.7 |
| 20260510111056 | 63 | 90 | 0.0 | 0.0 | 0.00 | 0.00 | 0.00 | 99 | 1010.8 |
| 20260510110552 | 63 | 90 | 0.0 | 0.0 | 0.00 | 0.00 | 0.00 | 99 | 1010.3 |
| 20260510110049 | 63 | 90 | 0.0 | 0.0 | 0.00 | 0.00 | 0.00 | 99 | 1010.1 |
| 20260510105544 | 63 | 91 | 0.0 | 0.0 | 0.00 | 0.00 | 0.00 | 99 | 1010.1 |
| 20260510105039 | 63 | 91 | 0.0 | 1.0 | 0.00 | 0.00 | 0.00 | 99 | 1009.9 |
| 20260510104536 | 63 | 92 | 0.0 | 0.0 | 0.00 | 0.00 | 0.00 | 99 | 1010.1 |
| 20260510104032 | 63 | 92 | 0.0 | 0.0 | 0.00 | 0.00 | 0.00 | 99 | 1010.0 |
| 20260510103530 | 63 | 92 | 0.0 | 0.0 | 0.00 | 0.00 | 0.00 | 99 | 1009.9 |
| 20260510103026 | 63 | 92 | 0.0 | 0.0 | 0.00 | 0.00 | 0.00 | 99 | 1009.7 |
| 20260510102522 | 63 | 92 | 0.0 | 1.0 | 0.00 | 0.00 | 0.00 | 99 | 1009.6 |
| 20260510102018 | 63 | 92 | 0.0 | 0.0 | 0.00 | 0.00 | 0.00 | 99 | 1009.7 |
| 20260510101516 | 63 | 92 | 0.0 | 0.0 | 0.00 | 0.00 | 0.00 | 99 | 1009.4 |
| 20260510101014 | 63 | 64 | 1.0 | 1.0 | 0.00 | 0.00 | 0.00 | 99 | 1009.7 |
| 20260510100510 | 63 | 64 | 0.0 | 1.0 | 0.00 | 0.00 | 0.00 | 99 | 1009.4 |
| 20260510100007 | 63 | 64 | 0.0 | 1.0 | 0.00 | 0.00 | 0.00 | 99 | 1009.4 |
| 20260510095502 | 63 | 64 | 0.0 | 0.0 | 0.00 | 0.00 | 0.00 | 99 | 1009.4 |
| 20260510095002 | 63 | 64 | 0.0 | 0.0 | 0.00 | 0.00 | 0.00 | 99 | 1009.3 |
| 20260510094457 | 63 | 64 | 0.0 | 1.0 | 0.00 | 0.00 | 0.00 | 99 | 1009.3 |
| 20260510093953 | 63 | 64 | 0.0 | 0.0 | 0.00 | 0.00 | 0.00 | 99 | 1009.2 |
| 20260510093449 | 63 | 64 | 0.0 | 1.0 | 0.00 | 0.00 | 0.00 | 99 | 1009.2 |
| 20260510092945 | 63 | 64 | 0.0 | 0.0 | 0.00 | 0.00 | 0.00 | 99 | 1009.2 |
| 20260510092443 | 63 | 64 | 0.0 | 0.0 | 0.00 | 0.00 | 0.00 | 99 | 1009.3 |
| 20260510091942 | 63 | 64 | 0.0 | 0.0 | 0.00 | 0.00 | 0.00 | 99 | 1009.0 |
| 20260510091439 | 63 | 64 | 0.0 | 0.0 | 0.00 | 0.00 | 0.00 | 99 | 1009.1 |
| 20260510090936 | 63 | 64 | 1.0 | 1.0 | 0.00 | 0.00 | 0.00 | 99 | 1009.0 |
| 20260510090433 | 63 | 64 | 0.0 | 1.0 | 0.00 | 0.00 | 0.00 | 99 | 1009.1 |
| 20260510085928 | 63 | 64 | 0.0 | 1.0 | 0.00 | 0.00 | 0.00 | 99 | 1008.8 |
| 20260510085424 | 63 | 64 | 0.0 | 0.0 | 0.00 | 0.00 | 0.00 | 99 | 1008.9 |
| 20260510084919 | 63 | 64 | 0.0 | 0.0 | 0.00 | 0.00 | 0.00 | 99 | 1009.0 |
| 20260510084417 | 63 | 64 | 0.0 | 0.0 | 0.00 | 0.00 | 0.00 | 99 | 1008.6 |
| 20260510083913 | 63 | 64 | 0.0 | 0.0 | 0.00 | 0.00 | 0.00 | 99 | 1008.9 |
| 20260510083409 | 63 | 64 | 0.0 | 0.0 | 0.00 | 0.00 | 0.00 | 99 | 1008.5 |
| 20260510082905 | 63 | 64 | 0.0 | 0.0 | 0.00 | 0.00 | 0.00 | 99 | 1008.6 |
| 20260510082403 | 63 | 64 | 0.0 | 0.0 | 0.00 | 0.00 | 0.00 | 99 | 1008.5 |
| 20260510081901 | 63 | 64 | 0.0 | 0.0 | 0.00 | 0.00 | 0.00 | 99 | 1008.4 |
| 20260510081358 | 63 | 64 | 0.0 | 0.0 | 0.00 | 0.00 | 0.00 | 99 | 1008.2 |
| 20260510080855 | 63 | 64 | 0.0 | 0.0 | 0.00 | 0.00 | 0.00 | 99 | 1008.4 |
| 20260510080354 | 63 | 64 | 0.0 | 0.0 | 0.00 | 0.00 | 0.00 | 99 | 1008.3 |
| 20260510075851 | 63 | 64 | 0.0 | 0.0 | 0.00 | 0.00 | 0.00 | 99 | 1008.2 |
| 20260510075349 | 64 | 64 | 0.0 | 0.0 | 0.00 | 0.00 | 0.00 | 99 | 1008.2 |
| 20260510074845 | 64 | 64 | 0.0 | 0.0 | 0.00 | 0.00 | 0.00 | 99 | 1008.2 |
| 20260510074342 | 64 | 64 | 0.0 | 0.0 | 0.00 | 0.00 | 0.00 | 99 | 1008.3 |
| 20260510073839 | 64 | 64 | 0.0 | 0.0 | 0.00 | 0.00 | 0.00 | 99 | 1008.3 |
| 20260510073334 | 64 | 64 | 0.0 | 0.0 | 0.00 | 0.00 | 0.00 | 99 | 1008.0 |
| 20260510072830 | 64 | 64 | 0.0 | 0.0 | 0.00 | 0.00 | 0.00 | 99 | 1008.1 |
| 20260510072328 | 64 | 64 | 0.0 | 0.0 | 0.00 | 0.00 | 0.00 | 98 | 1008.1 |
| 20260510071824 | 64 | 64 | 0.0 | 1.0 | 0.00 | 0.00 | 0.00 | 99 | 1008.0 |
| 20260510071320 | 64 | 64 | 0.0 | 0.0 | 0.00 | 0.00 | 0.00 | 99 | 1008.1 |
| 20260510070820 | 64 | 64 | 0.0 | 0.0 | 0.00 | 0.00 | 0.00 | 98 | 1008.1 |
| 20260510070316 | 64 | 64 | 0.0 | 0.0 | 0.00 | 0.00 | 0.00 | 98 | 1008.1 |
| 20260510065816 | 64 | 64 | 0.0 | 0.0 | 0.00 | 0.00 | 0.00 | 98 | 1008.0 |
| 20260510065313 | 64 | 64 | 0.0 | 0.0 | 0.00 | 0.00 | 0.00 | 98 | 1008.3 |
| 20260510064809 | 64 | 64 | 0.0 | 0.0 | 0.00 | 0.00 | 0.00 | 98 | 1008.3 |
| 20260510064308 | 64 | 64 | 0.0 | 0.0 | 0.00 | 0.00 | 0.00 | 98 | 1008.1 |
| 20260510063803 | 64 | 64 | 0.0 | 0.0 | 0.00 | 0.00 | 0.00 | 98 | 1008.4 |
| 20260510063259 | 64 | 64 | 0.0 | 0.0 | 0.00 | 0.00 | 0.00 | 98 | 1008.4 |
| 20260510062756 | 64 | 64 | 0.0 | 0.0 | 0.00 | 0.00 | 0.00 | 98 | 1008.5 |
| 20260510062252 | 64 | 64 | 0.0 | 1.0 | 0.00 | 0.00 | 0.00 | 98 | 1008.4 |
| 20260510061747 | 64 | 64 | 1.0 | 1.0 | 0.00 | 0.00 | 0.00 | 98 | 1008.5 |
| 20260510061245 | 64 | 68 | 0.0 | 1.0 | 0.00 | 0.00 | 0.00 | 98 | 1008.7 |
| 20260510060741 | 64 | 68 | 0.0 | 0.0 | 0.00 | 0.00 | 0.00 | 98 | 1008.4 |
| 20260510060238 | 64 | 68 | 0.0 | 0.0 | 0.00 | 0.00 | 0.00 | 98 | 1008.5 |
| 20260510055734 | 64 | 68 | 0.0 | 1.0 | 0.00 | 0.00 | 0.00 | 98 | 1008.7 |
| 20260510055233 | 63 | 68 | 0.0 | 0.0 | 0.00 | 0.00 | 0.00 | 98 | 1008.7 |
| 20260510054732 | 63 | 68 | 0.0 | 0.0 | 0.00 | 0.00 | 0.00 | 98 | 1008.5 |
| 20260510054229 | 63 | 68 | 0.0 | 0.0 | 0.00 | 0.00 | 0.00 | 98 | 1008.5 |
| 20260510053728 | 63 | 68 | 0.0 | 0.0 | 0.00 | 0.00 | 0.00 | 98 | 1008.7 |
| 20260510053225 | 62 | 68 | 0.0 | 0.0 | 0.00 | 0.00 | 0.00 | 98 | 1008.8 |
| 20260510052720 | 62 | 68 | 0.0 | 0.0 | 0.00 | 0.00 | 0.00 | 98 | 1008.6 |
| 20260510052217 | 62 | 68 | 0.0 | 0.0 | 0.00 | 0.00 | 0.00 | 98 | 1008.5 |
| 20260510051713 | 62 | 68 | 0.0 | 0.0 | 0.00 | 0.00 | 0.00 | 98 | 1008.6 |
| 20260510051209 | 62 | 68 | 0.0 | 0.0 | 0.00 | 0.00 | 0.00 | 98 | 1008.6 |
| 20260510050707 | 62 | 68 | 0.0 | 0.0 | 0.00 | 0.00 | 0.00 | 98 | 1008.9 |
| 20260510050204 | 62 | 68 | 0.0 | 0.0 | 0.00 | 0.00 | 0.00 | 98 | 1008.8 |
| 20260510045700 | 63 | 68 | 0.0 | 0.0 | 0.00 | 0.04 | 0.04 | 98 | 1008.8 |
| 20260510045157 | 63 | 68 | 0.0 | 0.0 | 0.00 | 0.04 | 0.04 | 98 | 1008.8 |
| 20260510044653 | 63 | 68 | 0.0 | 0.0 | 0.00 | 0.04 | 0.04 | 98 | 1008.8 |
| 20260510044151 | 63 | 68 | 0.0 | 0.0 | 0.00 | 0.04 | 0.04 | 98 | 1008.7 |
| 20260510043646 | 63 | 68 | 0.0 | 0.0 | 0.00 | 0.04 | 0.04 | 98 | 1008.7 |
| 20260510043143 | 63 | 68 | 0.0 | 0.0 | 0.00 | 0.04 | 0.04 | 98 | 1008.6 |
| 20260510042641 | 63 | 68 | 0.0 | 0.0 | 0.00 | 0.04 | 0.04 | 97 | 1008.6 |
| 20260510042137 | 63 | 68 | 0.0 | 0.0 | 0.00 | 0.04 | 0.04 | 97 | 1008.7 |
| 20260510041634 | 64 | 68 | 0.0 | 0.0 | 0.00 | 0.04 | 0.04 | 97 | 1009.0 |
| 20260510041131 | 64 | 68 | 0.0 | 0.0 | 0.00 | 0.04 | 0.04 | 98 | 1008.8 |
| 20260510040628 | 64 | 68 | 0.0 | 0.0 | 0.00 | 0.04 | 0.04 | 98 | 1009.1 |
| 20260510040125 | 64 | 68 | 0.0 | 0.0 | 0.00 | 0.04 | 0.04 | 98 | 1009.0 |
| 20260510035620 | 64 | 68 | 0.0 | 0.0 | 0.00 | 0.04 | 0.04 | 98 | 1009.1 |
| 20260510035121 | 64 | 68 | 0.0 | 0.0 | 0.00 | 0.04 | 0.04 | 97 | 1009.2 |
| 20260510034618 | 64 | 68 | 0.0 | 0.0 | 0.00 | 0.04 | 0.04 | 97 | 1009.1 |
| 20260510034115 | 64 | 68 | 0.0 | 1.0 | 0.00 | 0.04 | 0.04 | 97 | 1009.4 |
| 20260510033612 | 64 | 68 | 0.0 | 1.0 | 0.00 | 0.04 | 0.04 | 97 | 1009.3 |
| 20260510033109 | 65 | 68 | 0.0 | 0.0 | 0.00 | 0.04 | 0.04 | 97 | 1009.6 |
| 20260510032605 | 65 | 68 | 0.0 | 0.0 | 0.00 | 0.04 | 0.04 | 97 | 1009.2 |
| 20260510032101 | 65 | 68 | 0.0 | 0.0 | 0.00 | 0.04 | 0.04 | 97 | 1009.1 |
| 20260510031556 | 65 | 68 | 0.0 | 0.0 | 0.00 | 0.04 | 0.04 | 97 | 1009.1 |
| 20260510031053 | 65 | 68 | 0.0 | 0.0 | 0.00 | 0.04 | 0.04 | 97 | 1009.1 |
| 20260510030548 | 65 | 68 | 0.0 | 0.0 | 0.00 | 0.04 | 0.04 | 97 | 1009.0 |
| 20260510030045 | 65 | 68 | 0.0 | 1.0 | 0.00 | 0.04 | 0.04 | 97 | 1008.9 |
| 20260510025542 | 65 | 68 | 0.0 | 0.0 | 0.00 | 0.04 | 0.04 | 97 | 1009.0 |
| 20260510025040 | 65 | 68 | 1.0 | 1.0 | 0.00 | 0.04 | 0.04 | 97 | 1009.1 |
| 20260510024536 | 65 | 69 | 1.0 | 1.0 | 0.00 | 0.04 | 0.04 | 97 | 1009.0 |
| 20260510024032 | 65 | 70 | 0.0 | 0.0 | 0.00 | 0.04 | 0.04 | 97 | 1008.7 |
| 20260510023528 | 65 | 70 | 1.0 | 1.0 | 0.00 | 0.04 | 0.04 | 96 | 1008.8 |
| 20260510023026 | 64 | 70 | 0.0 | 1.0 | 0.00 | 0.04 | 0.04 | 96 | 1008.9 |
| 20260510022526 | 65 | 70 | 0.0 | 0.0 | 0.00 | 0.04 | 0.04 | 96 | 1008.8 |
| 20260510022026 | 65 | 70 | 0.0 | 1.0 | 0.00 | 0.04 | 0.04 | 96 | 1008.7 |
| 20260510021523 | 65 | 70 | 1.0 | 1.0 | 0.00 | 0.04 | 0.04 | 95 | 1008.7 |
| 20260510021020 | 65 | 70 | 0.0 | 0.0 | 0.00 | 0.04 | 0.04 | 95 | 1008.5 |
| 20260510020514 | 65 | 70 | 1.0 | 1.0 | 0.00 | 0.04 | 0.04 | 95 | 1008.7 |
| 20260510020010 | 66 | 70 | 0.0 | 0.0 | 0.00 | 0.04 | 0.04 | 95 | 1008.2 |
| 20260510015506 | 66 | 70 | 0.0 | 0.0 | 0.00 | 0.04 | 0.04 | 95 | 1008.4 |
| 20260510015002 | 66 | 71 | 0.0 | 0.0 | 0.00 | 0.04 | 0.04 | 95 | 1008.2 |
| 20260510014459 | 66 | 132 | 0.0 | 0.0 | 0.00 | 0.04 | 0.04 | 95 | 1008.2 |
| 20260510013956 | 66 | 132 | 0.0 | 1.0 | 0.00 | 0.04 | 0.04 | 94 | 1007.8 |
| 20260510013450 | 66 | 132 | 1.0 | 1.0 | 0.00 | 0.04 | 0.04 | 94 | 1007.9 |
| 20260510012946 | 67 | 132 | 0.0 | 0.0 | 0.00 | 0.04 | 0.04 | 94 | 1007.7 |
| 20260510012441 | 66 | 132 | 0.0 | 0.0 | 0.00 | 0.04 | 0.04 | 94 | 1007.6 |
| 20260510011936 | 66 | 132 | 0.0 | 0.0 | 0.00 | 0.04 | 0.04 | 94 | 1007.5 |
| 20260510011431 | 66 | 132 | 0.0 | 0.0 | 0.00 | 0.04 | 0.04 | 93 | 1007.3 |
| 20260510010928 | 67 | 132 | 0.0 | 0.0 | 0.00 | 0.04 | 0.04 | 93 | 1007.1 |
| 20260510010425 | 67 | 132 | 0.0 | 0.0 | 0.00 | 0.04 | 0.04 | 93 | 1007.1 |
| 20260510005922 | 67 | 132 | 0.0 | 0.0 | 0.00 | 0.04 | 0.04 | 93 | 1006.8 |
| 20260510005418 | 67 | 132 | 0.0 | 0.0 | 0.00 | 0.04 | 0.04 | 93 | 1006.8 |
| 20260510004915 | 67 | 132 | 0.0 | 0.0 | 0.00 | 0.04 | 0.04 | 93 | 1006.7 |
| 20260510004413 | 68 | 132 | 0.0 | 0.0 | 0.00 | 0.04 | 0.04 | 92 | 1006.9 |
| 20260510003910 | 68 | 132 | 0.0 | 0.0 | 0.00 | 0.04 | 0.04 | 91 | 1006.7 |
| 20260510003407 | 68 | 132 | 0.0 | 0.0 | 0.00 | 0.04 | 0.04 | 91 | 1006.5 |
| 20260510002906 | 68 | 132 | 0.0 | 0.0 | 0.00 | 0.04 | 0.04 | 91 | 1006.5 |
| 20260510002404 | 68 | 132 | 0.0 | 0.0 | 0.00 | 0.04 | 0.04 | 90 | 1006.7 |
| 20260510001900 | 68 | 132 | 0.0 | 0.0 | 0.00 | 0.04 | 0.04 | 91 | 1006.4 |
| 20260510001358 | 69 | 132 | 0.0 | 0.0 | 0.00 | 0.04 | 0.04 | 91 | 1006.2 |
| 20260510000854 | 69 | 132 | 0.0 | 0.0 | 0.00 | 0.04 | 0.04 | 90 | 1006.4 |
| 20260510000351 | 69 | 132 | 0.0 | 0.0 | 0.00 | 0.04 | 0.04 | 89 | 1006.3 |
| 20260509235847 | 69 | 132 | 0.0 | 0.0 | 0.00 | 0.04 | 0.04 | 87 | 1006.3 |
| 20260509235344 | 70 | 132 | 0.0 | 0.0 | 0.00 | 0.04 | 0.04 | 85 | 1006.3 |
| 20260509234840 | 70 | 132 | 0.0 | 0.0 | 0.00 | 0.04 | 0.04 | 86 | 1006.3 |
| 20260509234337 | 70 | 132 | 0.0 | 0.0 | 0.00 | 0.04 | 0.04 | 87 | 1006.2 |
| 20260509233836 | 70 | 132 | 0.0 | 0.0 | 0.00 | 0.04 | 0.04 | 87 | 1006.2 |
| 20260509233333 | 71 | 132 | 0.0 | 0.0 | 0.00 | 0.04 | 0.04 | 86 | 1006.5 |
| 20260509232828 | 71 | 132 | 0.0 | 0.0 | 0.00 | 0.04 | 0.04 | 85 | 1006.7 |
| 20260509232327 | 71 | 132 | 0.0 | 0.0 | 0.00 | 0.04 | 0.04 | 85 | 1006.3 |
| 20260509231822 | 71 | 132 | 0.0 | 0.0 | 0.00 | 0.04 | 0.04 | 84 | 1006.3 |
| 20260509231319 | 71 | 132 | 0.0 | 0.0 | 0.00 | 0.04 | 0.04 | 84 | 1006.4 |
| 20260509230817 | 72 | 132 | 0.0 | 0.0 | 0.00 | 0.04 | 0.04 | 83 | 1006.5 |
| 20260509230314 | 72 | 132 | 0.0 | 0.0 | 0.00 | 0.04 | 0.04 | 82 | 1006.6 |
| 20260509225809 | 72 | 132 | 0.0 | 0.0 | 0.00 | 0.04 | 0.04 | 82 | 1006.4 |
| 20260509225306 | 72 | 132 | 0.0 | 0.0 | 0.00 | 0.04 | 0.04 | 81 | 1006.5 |
| 20260509224802 | 72 | 132 | 0.0 | 0.0 | 0.00 | 0.04 | 0.04 | 79 | 1006.4 |
| 20260509224258 | 72 | 132 | 0.0 | 1.0 | 0.00 | 0.04 | 0.04 | 79 | 1006.4 |
| 20260509223755 | 72 | 132 | 0.0 | 1.0 | 0.00 | 0.04 | 0.04 | 80 | 1006.3 |
| 20260509223252 | 72 | 132 | 0.0 | 0.0 | 0.00 | 0.04 | 0.04 | 80 | 1006.2 |
| 20260509222749 | 72 | 132 | 0.0 | 1.0 | 0.00 | 0.04 | 0.04 | 79 | 1006.3 |
| 20260509222244 | 72 | 132 | 0.0 | 1.0 | 0.00 | 0.04 | 0.04 | 79 | 1006.2 |
| 20260509221740 | 73 | 132 | 0.0 | 1.0 | 0.00 | 0.04 | 0.04 | 78 | 1006.1 |
| 20260509221237 | 73 | 133 | 0.0 | 0.0 | 0.00 | 0.04 | 0.04 | 76 | 1006.2 |
| 20260509220732 | 73 | 133 | 0.0 | 0.0 | 0.00 | 0.04 | 0.04 | 77 | 1005.9 |
| 20260509220229 | 73 | 133 | 0.0 | 0.0 | 0.00 | 0.04 | 0.04 | 74 | 1006.1 |
| 20260509215725 | 73 | 133 | 0.0 | 0.0 | 0.00 | 0.04 | 0.04 | 74 | 1005.9 |
| 20260509215221 | 73 | 133 | 0.0 | 0.0 | 0.00 | 0.04 | 0.04 | 77 | 1006.1 |
| 20260509214719 | 73 | 135 | 0.0 | 0.0 | 0.00 | 0.04 | 0.04 | 76 | 1006.0 |
| 20260509214216 | 74 | 137 | 1.0 | 1.0 | 0.00 | 0.04 | 0.04 | 73 | 1006.1 |
| 20260509213713 | 74 | 71 | 0.0 | 0.0 | 0.00 | 0.04 | 0.04 | 71 | 1005.6 |
| 20260509213208 | 74 | 70 | 1.0 | 1.0 | 0.00 | 0.04 | 0.04 | 74 | 1005.6 |
| 20260509212706 | 74 | 63 | 0.0 | 0.0 | 0.00 | 0.04 | 0.04 | 72 | 1005.5 |
| 20260509212203 | 73 | 61 | 1.0 | 1.0 | 0.00 | 0.04 | 0.04 | 71 | 1005.6 |
| 20260509211659 | 73 | 62 | 1.0 | 2.0 | 0.00 | 0.04 | 0.04 | 73 | 1005.4 |
| 20260509211155 | 73 | 59 | 1.0 | 1.0 | 0.00 | 0.04 | 0.04 | 73 | 1005.6 |
| 20260509210652 | 72 | 130 | 1.0 | 1.0 | 0.00 | 0.04 | 0.04 | 73 | 1005.4 |
| 20260509210149 | 73 | 117 | 0.0 | 0.0 | 0.00 | 0.04 | 0.04 | 73 | 1005.4 |
| 20260509205644 | 73 | 130 | 1.0 | 1.0 | 0.00 | 0.04 | 0.04 | 73 | 1005.3 |
| 20260509205144 | 74 | 130 | 1.0 | 1.0 | 0.00 | 0.04 | 0.04 | 72 | 1005.5 |
| 20260509204640 | 73 | 111 | 1.0 | 1.0 | 0.00 | 0.04 | 0.04 | 73 | 1005.5 |
| 20260509204137 | 73 | 110 | 0.0 | 1.0 | 0.00 | 0.04 | 0.04 | 73 | 1005.8 |
| 20260509203633 | 72 | 111 | 2.0 | 2.0 | 0.00 | 0.04 | 0.04 | 73 | 1005.8 |
| 20260509203131 | 74 | 90 | 0.0 | 0.0 | 0.00 | 0.04 | 0.04 | 71 | 1005.9 |
| 20260509202631 | 74 | 82 | 0.0 | 0.0 | 0.00 | 0.04 | 0.04 | 74 | 1006.0 |
| 20260509202126 | 73 | 81 | 0.0 | 0.0 | 0.00 | 0.04 | 0.04 | 75 | 1005.9 |
| 20260509201621 | 72 | 108 | 1.0 | 1.0 | 0.00 | 0.04 | 0.04 | 75 | 1006.0 |
| 20260509201120 | 72 | 129 | 0.0 | 0.0 | 0.00 | 0.04 | 0.04 | 76 | 1006.0 |
| 20260509200615 | 72 | 123 | 3.0 | 3.0 | 0.00 | 0.04 | 0.04 | 77 | 1006.1 |
| 20260509200111 | 72 | 128 | 1.0 | 1.0 | 0.00 | 0.04 | 0.04 | 79 | 1006.2 |
| 20260509195607 | 72 | 126 | 2.0 | 2.0 | 0.00 | 0.04 | 0.04 | 77 | 1006.4 |
| 20260509195101 | 73 | 138 | 3.0 | 3.0 | 0.00 | 0.04 | 0.04 | 76 | 1006.3 |
| 20260509194601 | 73 | 112 | 1.0 | 1.0 | 0.00 | 0.04 | 0.04 | 76 | 1006.2 |
| 20260509194059 | 73 | 132 | 1.0 | 1.0 | 0.00 | 0.04 | 0.04 | 74 | 1006.2 |
| 20260509193554 | 73 | 61 | 2.0 | 2.0 | 0.00 | 0.04 | 0.04 | 74 | 1006.4 |
| 20260509193051 | 73 | 136 | 2.0 | 2.0 | 0.00 | 0.04 | 0.04 | 74 | 1006.6 |
| 20260509192547 | 73 | 113 | 0.0 | 0.0 | 0.00 | 0.04 | 0.04 | 74 | 1006.4 |
| 20260509192043 | 72 | 113 | 0.0 | 1.0 | 0.00 | 0.04 | 0.04 | 74 | 1006.7 |
| 20260509191542 | 73 | 63 | 0.0 | 0.0 | 0.00 | 0.04 | 0.04 | 75 | 1006.5 |
| 20260509191039 | 72 | 61 | 1.0 | 1.0 | 0.00 | 0.04 | 0.04 | 74 | 1006.6 |
| 20260509190536 | 72 | 142 | 2.0 | 2.0 | 0.00 | 0.04 | 0.04 | 75 | 1006.4 |
| 20260509190034 | 72 | 22 | 2.0 | 2.0 | 0.00 | 0.04 | 0.04 | 75 | 1006.8 |
| 20260509185531 | 71 | 139 | 1.0 | 1.0 | 0.00 | 0.04 | 0.04 | 79 | 1006.8 |
| 20260509185027 | 71 | 139 | 1.0 | 1.0 | 0.00 | 0.04 | 0.04 | 78 | 1006.9 |
| 20260509184526 | 71 | 139 | 0.0 | 1.0 | 0.00 | 0.04 | 0.04 | 77 | 1007.0 |
| 20260509184022 | 71 | 139 | 1.0 | 1.0 | 0.00 | 0.04 | 0.04 | 79 | 1007.0 |
| 20260509183517 | 70 | 134 | 0.0 | 0.0 | 0.00 | 0.04 | 0.04 | 78 | 1006.9 |
| 20260509183013 | 71 | 11 | 2.0 | 2.0 | 0.00 | 0.04 | 0.04 | 76 | 1006.7 |
| 20260509182509 | 70 | 135 | 1.0 | 2.0 | 0.00 | 0.04 | 0.04 | 78 | 1006.9 |
| 20260509182007 | 71 | 121 | 1.0 | 2.0 | 0.00 | 0.04 | 0.04 | 77 | 1007.1 |
| 20260509181505 | 70 | 64 | 1.0 | 1.0 | 0.00 | 0.04 | 0.04 | 76 | 1007.2 |
| 20260509181002 | 70 | 85 | 0.0 | 0.0 | 0.00 | 0.04 | 0.04 | 78 | 1007.4 |
| 20260509180457 | 70 | 62 | 0.0 | 1.0 | 0.00 | 0.04 | 0.04 | 78 | 1007.3 |
| 20260509175954 | 70 | 63 | 0.0 | 0.0 | 0.00 | 0.04 | 0.04 | 79 | 1007.3 |
| 20260509175450 | 70 | 92 | 0.0 | 0.0 | 0.00 | 0.04 | 0.04 | 79 | 1007.6 |
| 20260509174947 | 70 | 65 | 1.0 | 1.0 | 0.00 | 0.04 | 0.04 | 81 | 1007.6 |